ECMWFNIL_prec_cthk_057.txt.gz
RH
77 85 86 79 75 73 76 81 78 68 60 58 58 58 55 51 46 44 44 43 41 45 46 46 51 53 52 53 51 51 55 51 48 50 50 48 49 49 46 48 56 57
72 81 84 79 75 75 78 79 72 65 61 58 57 59 58 55 53 50 48 45 42 44 46 47 50 51 52 54 51 49 52 51 49 50 48 47 49 48 45 48 55 54
70 75 79 78 76 74 75 75 70 66 62 59 59 61 60 60 61 58 52 52 51 48 48 50 50 50 51 52 50 49 49 51 53 51 48 48 48 47 46 49 52 48
73 77 80 79 78 76 75 74 69 65 63 62 63 63 63 63 64 61 55 55 58 52 47 47 49 52 52 50 49 49 49 51 54 51 49 50 48 47 48 50 51 49
74 80 81 80 79 77 75 70 64 62 63 63 63 64 65 65 65 64 60 59 60 56 52 51 51 51 51 50 49 49 50 51 52 51 51 53 50 47 48 49 51 53
73 81 85 83 80 78 73 66 61 64 67 64 64 65 66 66 66 65 64 63 61 58 57 57 55 50 46 46 46 47 49 50 50 49 51 54 53 51 49 48 49 48
73 84 88 85 81 77 72 66 65 70 70 66 65 68 69 68 66 65 65 65 62 60 58 58 56 50 44 41 41 45 48 49 49 49 49 52 54 53 51 47 46 44
73 82 84 82 79 76 72 70 70 72 71 68 68 69 69 68 67 66 65 64 63 61 59 56 55 52 47 42 39 43 45 43 44 45 44 47 50 51 51 50 47 43
72 78 80 79 76 74 73 71 73 75 73 70 70 68 67 67 67 66 64 63 64 64 61 59 56 54 52 46 41 41 41 38 37 36 36 40 43 42 44 50 48 45
72 74 78 78 76 76 74 72 76 78 74 72 70 68 67 67 66 64 63 64 65 65 64 63 60 57 56 51 46 43 41 39 38 36 33 34 36 35 37 46 51 51
75 75 78 79 78 77 76 77 81 79 75 73 70 68 67 67 65 64 65 66 68 66 66 67 65 63 60 57 53 48 44 43 43 43 38 34 33 32 34 44 53 56
78 81 83 82 81 80 80 80 80 79 76 73 69 68 67 65 65 66 67 68 69 68 67 67 68 66 64 61 58 53 47 44 45 48 46 40 35 34 36 46 56 58
84 86 86 83 80 79 81 80 78 77 76 72 68 66 65 64 66 69 69 68 67 66 65 66 67 67 65 63 61 56 52 48 47 50 50 46 40 37 39 48 58 60
88 86 81 80 79 77 77 76 74 75 74 70 68 66 63 64 67 67 66 65 65 65 66 67 66 67 68 66 63 59 55 51 49 50 51 49 45 41 42 48 56 61
84 81 76 77 79 75 73 71 70 72 72 68 66 65 64 63 64 63 62 62 62 66 69 70 69 70 70 69 65 59 54 50 48 49 52 53 49 44 43 46 51 57
84 82 79 79 79 76 73 71 70 70 68 65 65 64 63 62 60 59 59 59 62 66 68 69 71 73 73 72 67 59 52 50 47 45 48 53 53 46 44 46 48 52
90 88 85 83 82 79 77 75 74 73 70 68 66 65 64 64 64 65 64 65 69 71 69 67 70 73 73 72 67 59 54 52 48 43 43 49 52 47 43 44 47 50
90 89 85 83 82 80 79 80 80 77 72 69 68 66 66 69 71 73 73 74 76 76 74 75 74 74 75 72 63 57 56 53 49 47 43 44 49 47 44 45 48 52
89 88 84 84 85 82 83 84 82 78 75 76 77 76 77 80 82 83 83 83 82 80 78 79 78 78 81 75 62 56 55 50 49 51 46 43 45 44 44 45 47 50
90 89 85 84 85 85 87 86 85 84 84 86 89 88 86 87 88 88 87 85 81 78 77 76 77 81 81 73 63 60 57 51 51 55 53 51 51 50 49 50 49 49
88 88 86 84 86 88 88 87 86 88 88 89 92 90 85 84 84 83 82 80 78 77 77 76 76 75 73 69 66 66 63 56 52 52 53 55 55 53 51 52 54 56
86 85 84 87 89 88 87 86 86 88 89 90 91 88 83 81 80 79 79 79 77 73 70 69 65 62 64 67 67 65 62 58 55 55 56 56 54 51 48 50 53 56
88 87 87 89 91 89 87 88 88 88 89 90 91 88 84 80 78 78 79 79 77 72 67 63 59 56 56 59 59 57 55 54 56 61 64 63 62 58 54 54 56 55
92 93 93 92 92 92 93 93 92 90 89 89 89 88 84 78 76 77 79 81 80 78 75 71 68 64 59 55 53 51 49 48 52 59 63 65 65 63 60 62 65 62
94 94 94 94 94 95 95 95 94 92 89 85 83 81 79 77 77 78 79 81 81 81 80 77 73 69 66 62 59 57 56 54 53 54 56 57 57 58 60 63 65 64
93 92 92 93 94 95 94 94 93 90 86 82 80 80 80 79 78 78 78 79 79 80 79 78 74 71 69 68 67 66 65 64 63 64 66 65 62 62 63 63 60 59

ECMWFNIL_prec_cthk_060.txt.gz
RH
47 54 60 68 71 72 75 75 69 67 71 74 74 72 67 58 51 48 47 44 44 45 47 50 52 53 52 52 53 52 51 51 50 47 45 46 47 50 50 47 43 45
50 53 56 63 68 68 71 73 69 68 72 73 73 70 63 55 50 48 46 45 46 48 49 49 51 53 54 54 53 52 52 53 51 49 48 47 49 49 48 48 44 43
54 56 56 60 66 66 67 70 70 73 74 74 73 69 62 55 51 49 47 46 47 48 49 52 52 53 55 56 55 54 53 53 50 48 48 47 47 48 47 47 45 44
56 58 58 62 66 66 67 69 73 76 76 75 73 69 62 56 55 55 51 51 55 52 51 55 55 53 55 55 56 57 56 53 50 48 48 48 48 47 46 46 46 46
58 60 62 64 64 65 68 73 78 79 77 76 71 67 64 60 59 59 55 56 63 59 54 54 53 52 55 55 56 60 58 55 54 52 51 50 50 50 47 46 47 48
61 65 65 63 63 66 72 79 84 82 78 74 69 67 66 62 63 63 59 60 65 63 58 57 54 51 52 54 57 59 58 56 56 55 54 53 55 55 49 45 48 48
65 68 66 63 64 69 76 83 86 82 76 71 68 69 65 63 67 68 64 65 66 63 60 58 56 52 50 50 52 52 54 56 54 52 53 54 56 56 51 49 50 50
70 69 67 65 67 70 77 83 85 80 74 70 71 70 65 64 69 69 69 69 68 65 62 59 57 56 53 49 48 48 50 53 51 47 48 49 49 51 53 55 54 51
71 71 70 66 64 69 75 81 83 78 74 73 72 69 67 69 71 71 71 70 68 66 64 61 59 57 54 51 48 46 45 46 46 46 46 45 43 45 48 50 52 52
71 73 70 64 63 70 76 79 81 78 77 77 72 68 70 71 72 72 72 70 67 68 67 64 61 57 53 53 49 45 43 41 41 42 42 40 39 40 40 41 46 52
72 72 69 65 66 75 79 79 81 82 82 78 72 71 72 73 72 71 69 67 65 66 66 64 63 59 55 55 52 49 46 41 38 41 42 40 38 39 39 37 42 50
76 75 73 70 72 81 83 79 82 86 83 76 72 73 73 71 69 67 66 64 62 64 65 63 64 64 61 59 57 54 51 45 40 42 44 43 41 39 40 40 43 52
81 78 77 78 82 86 84 79 82 86 83 77 75 74 72 68 66 64 63 62 61 63 65 65 67 67 65 65 63 59 57 53 48 45 45 46 43 40 42 43 47 56
85 84 84 87 88 85 82 81 82 82 80 79 77 73 70 67 65 63 61 61 61 62 63 65 67 67 67 67 66 64 62 59 54 49 47 48 46 44 43 44 50 59
86 91 91 90 88 83 83 84 83 81 82 82 77 71 68 66 64 63 61 61 62 62 64 65 64 64 65 65 66 67 66 64 59 53 49 48 48 47 44 43 50 59
87 90 88 87 88 85 84 85 84 85 87 84 76 70 67 66 64 62 62 62 64 63 64 63 61 62 63 63 66 69 69 66 60 55 51 49 49 50 46 43 45 52
87 87 84 86 91 87 83 83 83 82 82 78 73 70 68 65 62 60 60 60 60 59 57 55 56 59 61 63 67 69 69 65 57 53 53 52 51 53 51 46 45 49
83 85 85 89 92 87 81 79 76 74 73 71 69 68 65 63 61 59 59 59 60 60 57 54 54 55 59 65 68 70 70 65 55 52 55 54 52 52 51 48 46 47
82 86 89 91 91 85 80 76 72 71 71 69 68 67 65 65 65 64 66 68 69 70 67 65 63 63 66 70 70 73 75 68 57 54 56 55 52 50 50 49 46 45
82 84 86 87 86 83 79 76 73 72 72 71 71 70 69 70 71 74 77 79 80 79 78 78 78 77 77 76 71 72 73 66 59 58 59 59 54 49 47 48 48 49
83 82 82 83 84 83 82 80 77 75 76 77 77 77 78 80 82 84 86 85 84 83 80 80 82 81 79 76 74 73 67 58 56 58 61 63 61 54 51 50 50 53
89 87 86 86 86 86 88 89 87 83 82 83 84 85 86 89 89 89 86 83 80 78 75 75 76 77 77 75 74 70 60 52 57 62 64 66 64 58 54 52 51 54
94 94 93 93 91 90 90 90 90 88 86 86 87 89 89 88 88 87 84 80 77 72 69 68 66 67 68 68 66 62 56 56 64 70 72 72 68 61 56 53 52 52
93 95 95 96 96 94 91 88 87 89 88 86 87 88 87 86 87 88 86 82 76 70 66 65 64 62 61 60 61 61 60 61 67 70 72 73 72 67 64 63 61 58
94 93 93 93 94 95 92 89 89 90 90 89 90 92 91 90 90 91 89 85 79 74 70 69 69 68 66 63 62 61 58 57 58 58 59 62 64 63 62 62 62 61
95 93 93 92 93 92 92 91 92 93 93 94 95 96 95 94 92 89 85 83 82 80 78 76 75 73 72 69 67 64 60 57 55 53 52 53 54 53 52 51 52 54

ECMWFNIL_prec_cthk_063.txt.gz
RH
49 53 58 61 64 62 62 66 67 69 70 67 69 72 73 75 73 69 64 55 52 54 54 54 54 55 56 57 58 57 54 53 52 51 51 50 48 47 50 53 53 53
52 52 56 60 63 63 64 66 65 67 70 69 71 73 73 73 71 65 58 50 48 49 49 51 53 54 56 58 58 58 57 56 55 54 53 52 50 48 50 53 51 48
54 55 57 58 61 64 67 67 65 66 69 73 76 76 75 72 68 60 52 47 46 47 48 49 52 54 56 59 59 58 57 56 55 56 55 54 53 52 53 53 51 48
54 56 57 57 61 67 69 67 65 65 68 73 78 79 78 73 65 55 47 45 47 47 47 48 52 55 58 61 62 60 58 57 55 56 56 54 54 53 52 52 52 50
56 58 60 62 66 70 70 66 65 67 67 71 78 79 77 71 61 53 49 48 48 47 48 50 54 59 60 62 64 62 61 60 57 56 54 53 52 52 51 51 51 51
59 61 66 69 71 71 68 65 66 68 68 72 75 74 72 67 59 55 55 55 53 52 52 53 57 62 62 62 63 62 63 61 59 58 56 55 54 53 53 52 50 51
63 63 66 70 71 69 67 66 68 70 72 73 71 70 71 66 61 60 60 59 58 58 57 56 57 61 62 61 61 62 63 62 61 61 59 58 56 54 56 55 50 49
68 69 71 73 73 70 69 69 71 74 74 72 72 73 70 65 61 61 62 63 61 60 60 59 59 59 57 56 56 59 60 60 61 62 60 58 56 55 57 57 53 53
77 80 81 81 79 76 73 71 73 76 73 72 76 75 68 66 65 64 67 68 66 64 63 61 60 59 56 52 51 53 55 57 59 59 57 55 53 51 52 54 57 60
81 84 83 86 87 82 75 71 74 75 71 73 77 72 68 71 70 69 72 70 68 69 67 65 64 61 59 55 50 49 51 54 55 55 55 53 50 48 49 49 53 55
81 85 86 88 91 87 77 73 73 74 72 75 76 72 72 74 71 72 73 70 71 72 71 70 69 63 61 58 53 51 51 49 49 49 49 49 49 49 49 48 49 52
84 89 89 90 93 89 81 75 73 74 76 78 78 77 76 74 73 73 71 70 73 73 71 73 71 66 66 63 58 55 52 47 44 43 42 44 45 44 44 47 48 50
90 92 89 92 92 86 81 77 72 74 79 81 82 80 77 75 74 72 70 70 72 70 69 70 68 67 68 66 62 60 58 53 48 45 43 44 44 42 42 45 44 44
94 93 89 93 91 81 81 81 75 76 81 83 84 80 76 75 74 71 70 69 68 66 65 66 66 65 66 66 66 65 64 62 58 52 48 47 49 48 44 43 42 44
95 93 89 93 90 80 82 85 81 80 83 85 83 79 75 73 71 70 69 67 65 65 64 64 64 65 65 66 68 68 69 68 64 59 54 50 51 53 49 44 42 47
92 91 90 92 89 83 84 87 85 85 85 84 81 76 73 72 70 69 67 65 64 63 62 62 63 64 66 67 69 70 71 71 68 62 57 53 52 54 54 49 43 46
91 91 91 93 93 89 89 89 89 88 85 83 80 76 74 73 71 69 65 63 62 62 61 62 62 64 66 66 67 69 70 71 71 66 58 55 53 54 57 54 46 46
95 93 94 96 94 88 87 90 90 89 86 84 82 79 77 75 72 68 65 63 62 62 60 59 60 61 62 61 62 65 66 67 72 70 61 55 52 52 57 60 54 49
96 94 94 96 92 86 88 92 91 89 87 85 83 80 77 75 72 69 67 64 63 61 59 57 56 55 56 59 62 65 66 68 74 76 65 56 53 52 56 60 58 54
92 90 89 91 90 89 91 93 89 86 85 84 84 81 77 74 72 69 67 65 63 62 61 61 61 60 59 63 68 71 72 74 81 80 68 60 57 55 56 59 59 57
89 88 87 89 92 93 94 92 88 85 84 82 81 80 76 74 72 70 69 68 67 67 69 71 73 72 70 71 73 75 79 84 88 81 67 62 62 60 60 62 62 61
91 91 88 88 92 95 94 93 89 85 84 81 79 79 77 76 75 74 74 73 75 77 79 80 80 79 78 78 77 78 82 86 84 73 62 60 62 64 65 66 65 63
96 95 91 89 93 95 94 92 89 84 82 81 79 79 79 78 78 79 81 82 84 84 83 82 79 76 75 77 76 77 77 75 69 61 58 59 61 64 67 68 67 65
98 97 93 90 91 93 92 90 88 85 83 82 81 81 84 84 85 85 87 87 86 84 83 81 74 68 68 72 73 71 68 65 62 60 60 63 65 69 71 71 70 69
98 98 95 92 90 91 91 90 87 85 85 85 85 87 90 92 91 89 88 88 87 86 85 81 71 62 60 65 68 67 65 65 66 65 66 68 73 80 83 82 80 78
100 99 98 95 93 92 93 92 90 89 88 87 89 93 95 96 93 89 88 88 87 87 85 80 73 66 60 59 62 64 66 67 68 67 66 67 70 75 78 78 76 74

ECMWFNIL_prec_cthk_069.txt.gz
RH
71 72 71 69 70 69 67 65 64 66 74 77 76 80 84 83 80 76 73 73 74 77 81 82 78 76 75 69 60 56 55 55 57 58 56 53 51 51 51 50 48 49
67 68 72 71 71 74 71 65 62 65 71 78 79 79 84 90 89 80 73 73 75 78 81 81 79 80 77 67 60 58 57 57 58 57 54 52 52 52 51 50 49 49
65 67 73 72 70 76 77 69 64 65 69 76 80 79 82 90 92 82 74 75 77 79 81 80 80 82 76 65 62 61 59 59 58 55 53 53 53 52 50 50 49 48
67 70 76 73 69 72 75 71 67 65 66 73 78 78 81 90 92 84 79 79 78 80 83 83 81 79 73 66 65 63 59 59 58 55 55 53 52 51 50 49 49 48
68 69 72 70 70 71 70 70 70 65 62 69 77 78 79 86 89 85 82 81 80 81 86 85 79 73 69 67 66 63 59 57 58 58 57 55 54 52 51 50 49 49
68 68 68 67 72 74 71 71 70 64 60 66 75 78 76 78 81 82 83 83 84 83 84 85 78 70 68 66 63 62 59 57 58 59 59 58 57 55 54 52 51 50
67 69 67 66 71 76 76 74 69 64 64 67 72 75 74 72 74 78 81 85 87 84 84 85 78 70 67 64 61 60 58 57 59 59 60 59 59 58 56 54 53 53
65 67 67 67 71 73 73 71 67 65 68 70 70 72 73 71 73 80 83 85 88 85 84 83 75 67 65 62 60 59 58 58 58 59 60 60 59 60 58 56 55 56
64 65 68 70 71 71 70 71 69 68 72 75 72 71 72 70 74 84 86 86 88 87 83 79 71 66 65 62 60 60 58 57 58 59 61 61 61 62 61 59 57 56
67 67 69 69 71 73 72 72 70 69 74 78 74 72 74 73 76 84 85 85 89 87 81 75 69 65 66 65 63 61 58 58 59 60 62 63 63 63 62 60 59 57
69 69 69 68 71 74 72 70 70 71 76 78 75 75 78 77 78 84 86 86 89 86 78 70 65 63 65 66 65 62 59 61 63 63 64 65 66 65 64 63 61 59
69 69 69 69 71 75 74 72 72 73 76 78 78 80 82 83 85 87 88 89 90 83 73 65 64 63 64 65 63 60 61 64 66 66 67 67 65 65 65 63 62 60
68 69 66 65 69 73 74 75 75 78 79 80 82 84 85 88 90 89 90 91 86 78 69 65 65 65 64 64 63 60 60 63 64 65 65 64 63 63 63 62 61 59
66 65 61 60 63 66 69 73 78 85 88 86 85 85 86 89 88 87 90 89 83 77 71 67 67 67 65 65 63 59 57 58 59 59 59 60 60 59 59 59 59 58
64 61 58 57 59 61 66 73 79 86 92 91 88 88 89 90 88 86 87 86 81 77 74 71 71 70 67 66 65 61 59 58 57 57 57 57 56 54 51 51 51 51
64 61 58 59 62 65 70 77 83 87 91 93 90 89 91 91 88 86 85 84 80 76 74 74 73 72 71 70 70 67 64 63 62 61 61 59 56 51 48 46 44 44
65 63 61 64 71 74 75 83 89 90 93 94 91 90 92 91 89 88 86 83 80 77 77 77 75 76 76 76 76 73 71 69 69 69 69 66 61 55 50 46 45 46
68 66 66 70 74 76 79 87 93 94 96 97 93 90 91 91 90 89 86 83 83 83 81 79 78 79 79 78 76 74 72 71 71 73 73 70 67 63 58 54 51 51
75 73 73 76 78 79 84 90 95 96 96 94 92 91 90 90 89 88 86 84 86 85 82 79 79 78 77 74 72 70 70 70 70 70 69 68 68 67 66 65 61 56
83 81 81 82 81 84 91 94 95 96 94 92 93 93 90 90 89 87 84 83 84 85 82 79 78 77 75 73 70 68 68 69 69 68 67 67 68 69 70 72 71 63
89 89 88 88 86 88 95 96 95 95 93 92 94 93 90 90 89 87 84 82 82 83 81 80 79 77 74 72 70 68 67 66 67 68 69 70 71 72 73 73 72 65
92 95 94 94 94 94 97 97 96 97 95 93 93 91 90 90 88 86 84 83 83 83 82 81 79 76 73 71 69 67 65 66 67 68 70 72 73 73 72 73 74 66
92 97 97 96 96 97 98 99 98 97 95 94 93 91 91 91 89 87 87 86 85 83 81 79 76 74 73 71 69 66 65 67 68 67 69 73 75 74 74 79 80 70
92 97 98 97 95 95 98 98 96 94 93 93 94 93 93 93 91 89 88 87 85 82 80 77 74 72 72 71 69 67 67 69 70 72 75 79 81 79 79 84 81 70
96 99 98 98 96 94 95 95 93 93 93 93 94 94 93 93 91 89 88 88 87 86 84 81 77 73 70 69 67 67 71 76 80 83 85 86 85 81 80 81 78 71
95 98 98 99 98 95 94 94 93 94 94 94 94 93 92 92 92 90 89 89 89 89 88 84 81 77 73 71 70 72 78 85 88 90 89 88 83 78 73 69 69 70

ECMWFNIL_prec_cthk_072.txt.gz
RH
66 65 67 70 70 69 69 68 70 76 82 85 87 88 84 79 79 79 79 81 81 81 84 86 85 83 83 81 76 73 76 75 69 63 60 60 60 60 59 58 56 52
69 67 67 69 70 71 72 71 70 74 78 79 82 86 85 81 78 77 79 83 82 80 83 85 84 84 85 85 81 77 75 75 71 64 59 59 60 59 58 56 53 50
72 70 68 65 65 71 75 72 70 72 73 75 77 78 81 83 81 80 84 88 86 85 84 82 81 82 84 87 86 82 79 75 70 66 60 58 60 58 57 55 52 50
79 74 70 64 62 70 74 70 71 73 69 68 72 73 77 82 81 80 85 90 90 88 84 80 80 82 82 85 85 82 82 79 71 65 62 60 60 57 55 54 52 50
85 80 74 68 62 67 71 69 72 77 71 66 69 73 75 78 78 78 81 88 91 89 85 80 80 83 85 86 82 79 83 81 71 65 63 62 60 55 54 55 53 51
87 87 83 75 66 67 72 71 74 78 74 68 70 74 74 72 74 77 79 84 89 89 88 83 81 83 85 85 81 79 84 80 70 66 64 62 59 55 55 55 53 51
87 92 90 82 72 70 73 74 77 79 75 71 73 75 73 69 71 76 79 82 85 86 86 84 83 83 84 85 81 80 83 77 66 65 64 60 59 57 56 56 54 52
84 88 88 83 76 71 72 74 77 78 76 76 77 77 74 70 69 72 77 81 81 81 83 83 85 87 85 86 83 82 84 75 65 67 65 60 60 58 57 58 56 54
75 80 82 81 78 74 73 75 77 77 76 77 80 81 77 71 69 70 73 77 77 78 81 83 85 88 87 87 85 83 85 79 71 71 67 60 60 59 58 59 58 56
67 71 75 77 79 78 76 76 76 76 76 77 79 81 77 71 71 71 70 72 73 74 80 84 86 88 88 87 84 81 82 80 74 70 66 61 61 60 59 59 59 59
65 66 69 72 75 76 75 74 74 75 77 78 78 78 76 72 73 73 70 70 71 73 80 86 88 89 87 86 83 79 77 75 72 68 65 63 62 61 60 60 60 62
60 62 64 68 71 72 72 70 69 70 71 73 74 75 74 72 74 75 71 70 73 76 80 86 88 87 85 84 82 78 75 72 70 68 66 64 64 63 62 63 64 65
54 55 57 61 65 68 69 67 66 66 68 70 71 72 72 72 74 77 74 72 76 79 80 84 88 85 83 83 80 75 73 70 68 68 67 65 65 65 65 67 67 68
52 53 54 55 59 62 64 65 65 66 68 70 71 72 74 75 76 77 76 76 81 82 81 84 86 83 83 83 78 70 69 69 68 69 69 68 68 68 67 67 68 69
52 54 55 55 57 58 60 61 62 64 66 68 68 71 75 78 81 81 79 81 85 83 82 84 84 82 82 81 72 63 64 69 70 71 72 70 69 68 67 67 68 68
50 52 55 58 58 59 59 59 59 60 62 63 64 67 73 79 83 84 86 87 86 84 85 84 81 80 80 75 66 59 59 65 67 68 70 69 65 63 63 64 65 65
47 50 55 59 61 61 60 58 58 59 62 64 65 71 79 84 85 86 90 90 87 85 85 82 81 82 79 70 63 60 59 61 63 64 66 64 61 60 59 59 59 58
47 50 56 60 62 63 62 61 61 64 68 69 71 77 87 92 91 90 90 89 87 85 82 81 82 82 76 67 63 64 64 64 64 65 66 65 63 60 59 59 58 56
49 53 59 64 65 66 65 63 63 68 73 75 76 81 89 95 96 94 92 90 89 87 84 85 84 79 74 70 68 70 71 71 72 73 72 72 70 69 68 66 65 62
51 55 60 67 71 72 70 67 66 70 74 77 81 86 92 97 99 97 94 94 92 88 85 85 83 80 78 76 76 77 78 79 79 79 79 79 78 77 76 75 74 71
55 58 62 67 75 80 78 73 73 77 78 82 89 93 94 98 99 97 97 96 92 86 83 84 85 83 82 82 81 81 82 82 82 80 79 79 79 79 79 78 76 74
59 64 67 70 77 85 86 80 80 84 85 90 97 98 94 95 98 97 97 95 90 85 85 87 88 86 85 84 82 81 81 81 81 79 78 77 77 77 78 77 76 74
63 68 70 71 77 87 90 87 86 89 92 96 100 99 96 96 98 96 94 92 90 89 89 89 88 87 84 83 83 82 80 79 80 79 78 77 77 77 77 77 76 75
64 68 70 74 83 91 92 89 88 91 96 100 100 98 98 98 97 95 93 91 91 91 90 89 88 87 84 83 85 84 81 80 79 78 77 77 77 78 78 78 78 78
64 67 69 75 87 94 92 91 92 94 97 99 99 98 97 97 96 94 92 91 90 89 88 88 87 87 85 85 85 84 82 81 80 78 77 76 77 79 80 82 83 83
65 65 66 70 79 87 91 93 94 95 97 98 97 96 94 93 94 93 92 92 90 88 88 87 86 86 85 84 85 85 83 82 80 79 77 76 79 82 84 86 88 86

ECMWFNIL_prec_cthk_075.txt.gz
RH
60 60 62 64 63 61 60 60 62 65 67 71 77 83 86 87 86 84 84 86 88 89 91 92 89 84 78 74 74 76 78 79 78 77 77 79 79 79 76 69 64 62
64 65 65 66 65 64 62 60 61 63 66 69 71 76 80 82 82 82 82 83 86 88 90 91 92 89 82 77 76 77 79 78 76 75 77 79 80 80 77 71 64 62
70 69 69 69 68 67 66 62 60 61 65 69 70 70 71 74 79 79 79 80 83 85 85 87 90 91 87 83 79 78 80 81 80 78 77 80 84 81 75 70 67 64
71 70 70 70 70 71 69 65 62 61 64 67 68 67 66 71 77 77 77 78 80 82 82 85 89 91 91 89 82 80 81 82 83 80 77 79 83 81 77 74 70 66
68 68 69 70 70 70 70 69 65 62 63 64 66 67 67 71 75 76 77 79 78 79 79 82 87 89 92 92 86 82 82 83 83 82 79 79 81 81 81 75 68 67
65 67 69 70 71 71 71 73 71 67 64 63 65 67 68 72 75 74 76 79 76 75 77 79 85 89 90 90 86 83 82 82 83 83 81 82 80 79 79 73 68 70
64 64 66 68 73 77 78 78 76 72 68 64 64 66 67 71 75 74 75 76 74 73 74 78 83 88 90 88 87 86 83 81 83 84 84 83 79 78 80 75 69 70
62 61 61 64 71 80 87 86 81 77 73 68 68 68 68 70 74 74 74 74 74 73 73 75 81 86 88 89 88 87 83 82 84 85 85 83 78 78 84 81 71 66
55 56 58 60 66 75 85 87 84 80 76 73 72 70 70 71 72 73 72 73 77 77 73 73 78 82 84 86 87 85 83 82 84 85 84 82 78 76 81 82 72 63
45 48 53 57 61 67 74 79 80 79 76 74 74 73 73 73 72 72 72 74 78 78 74 72 76 79 79 82 85 85 83 82 83 85 85 83 79 76 78 80 73 63
41 42 46 51 55 60 65 69 73 75 75 74 75 75 76 77 75 74 76 78 79 77 74 72 74 75 76 77 82 84 84 82 83 86 88 84 78 75 79 79 71 63
39 40 41 44 48 52 57 60 64 68 71 72 73 74 75 77 76 75 77 80 80 77 75 73 73 73 74 74 77 81 84 85 86 88 89 84 76 75 81 78 70 65
37 37 38 40 42 46 50 54 56 60 64 68 69 70 71 73 73 72 73 77 80 78 75 74 72 72 74 74 75 81 86 88 89 89 87 84 78 79 84 79 72 69
36 35 35 36 39 43 47 50 52 54 57 61 64 65 67 69 69 69 69 72 77 78 76 75 74 73 76 76 77 83 89 90 89 88 86 83 80 83 88 83 76 73
37 35 35 36 38 41 44 48 52 54 54 56 59 61 63 64 66 67 67 68 72 75 75 75 76 78 78 77 79 86 91 90 88 88 87 83 81 85 87 83 78 76
37 36 37 39 42 43 44 48 53 56 57 57 58 60 61 62 64 65 66 69 72 75 75 74 76 80 81 80 81 85 88 88 86 86 85 83 84 87 85 80 79 79
39 40 41 44 46 46 47 51 55 58 60 61 61 61 62 63 64 65 67 70 73 76 76 74 77 84 86 84 82 83 86 86 85 86 85 83 85 88 83 79 79 79
43 44 46 47 49 49 49 52 56 59 61 62 62 63 63 64 65 67 68 70 71 74 75 76 82 88 90 86 84 85 86 85 84 85 84 83 86 87 83 79 76 74
47 48 48 48 50 52 54 56 58 61 63 64 64 64 64 65 66 67 69 70 72 74 77 83 89 92 92 88 87 87 85 83 83 82 79 80 82 80 76 73 69 66
50 50 49 48 51 55 59 62 64 66 67 69 69 66 65 65 66 69 72 74 75 78 84 91 94 94 93 92 90 88 85 83 82 78 74 75 73 66 63 64 63 62
52 52 51 50 53 57 60 65 69 71 72 75 74 71 67 67 69 73 77 78 78 83 91 97 97 96 96 93 88 86 84 81 78 73 69 69 67 62 61 64 67 68
52 53 52 51 53 55 58 62 67 71 74 77 78 75 71 71 72 76 82 84 86 91 97 99 98 96 94 91 87 84 81 76 73 71 70 71 70 69 70 72 75 76
51 52 52 51 51 52 55 58 62 69 76 80 81 79 76 75 78 83 90 94 96 98 99 99 99 96 91 89 87 83 79 77 76 76 76 75 74 75 76 78 79 79
52 53 53 52 51 51 52 55 59 70 81 88 88 85 82 83 87 91 96 100 99 98 99 99 98 95 90 87 87 85 83 83 83 81 78 75 75 76 78 79 80 80
53 55 54 54 53 52 51 53 57 67 81 91 94 92 91 93 95 96 97 99 98 98 99 99 95 92 90 88 88 89 89 87 85 82 79 78 79 79 79 80 80 80
55 56 55 54 55 56 54 55 58 63 72 84 93 96 96 96 96 96 96 96 97 97 98 97 92 90 90 90 90 91 92 88 85 84 83 83 83 83 82 82 81 81

ECMWFNIL_prec_cthk_078.txt.gz
RH
54 56 58 61 64 66 66 65 62 60 59 58 58 60 63 66 70 72 74 74 74 75 77 81 85 87 89 91 90 86 84 84 84 83 83 82 79 79 78 72 69 71
60 63 65 66 68 68 68 68 66 64 62 60 60 61 62 63 66 68 68 69 70 71 74 78 83 87 89 91 90 89 88 88 87 85 83 82 79 78 78 75 73 74
63 66 68 69 68 68 68 68 67 66 66 65 64 63 62 60 63 66 66 65 66 67 70 74 79 84 88 90 91 92 91 88 85 84 83 81 79 77 77 78 77 77
61 64 66 67 68 69 70 68 66 66 66 67 67 66 64 62 61 62 64 63 63 63 65 70 77 81 84 88 90 92 91 87 84 83 82 81 80 78 77 79 80 79
61 64 66 67 68 69 68 65 63 63 63 65 69 70 67 65 62 62 62 62 61 61 61 66 73 77 80 83 87 89 90 90 86 84 85 86 84 79 78 82 81 80
58 61 64 67 67 66 65 63 60 61 65 68 71 73 72 68 66 65 63 62 64 65 64 65 70 75 77 79 82 85 87 89 88 85 87 89 86 81 81 83 82 80
53 55 58 61 62 62 62 62 60 61 68 75 76 76 76 73 72 71 66 63 65 67 67 67 72 77 77 77 78 81 84 88 90 89 89 88 86 83 82 83 83 82
51 52 53 53 53 55 57 59 62 63 69 78 82 82 80 77 78 78 71 65 66 68 70 72 75 78 79 77 77 80 84 87 91 92 90 88 86 84 84 84 84 82
46 46 47 46 45 48 50 53 58 62 68 77 85 88 85 83 82 80 74 70 69 71 76 78 78 79 79 76 76 79 81 85 90 91 89 88 86 86 86 86 84 83
40 40 40 40 40 42 45 49 53 57 62 71 79 84 85 84 83 80 76 72 71 73 76 78 78 79 80 77 77 78 79 82 86 89 89 89 88 86 84 84 85 84
36 36 36 37 37 37 40 45 49 52 56 62 69 75 79 80 80 79 76 74 73 74 76 76 76 78 80 79 77 78 79 80 82 87 89 88 87 86 83 84 86 85
34 35 35 35 35 35 36 40 45 48 51 55 59 63 69 73 76 77 77 78 79 79 78 76 75 77 80 81 80 79 78 78 80 84 87 88 87 85 83 84 86 85
35 35 35 36 37 37 37 40 44 47 48 51 54 57 60 65 69 73 76 77 78 78 78 77 77 81 84 83 82 82 80 79 79 81 84 88 88 86 84 85 85 84
39 38 38 39 40 40 41 43 45 46 47 48 50 53 56 58 61 65 70 73 74 74 74 75 77 80 85 85 83 82 83 81 79 78 80 85 88 87 86 86 86 85
42 42 42 42 42 42 41 42 43 45 48 48 48 50 54 57 58 59 62 66 70 72 72 73 74 78 83 84 81 80 83 83 79 78 79 82 86 88 87 88 88 87
44 43 43 43 42 41 41 40 41 43 48 50 51 51 52 55 56 58 59 62 65 69 70 71 73 75 78 79 78 78 82 84 81 78 78 79 85 89 89 89 89 87
45 45 44 43 42 40 39 39 39 42 47 51 52 53 54 55 56 57 58 61 63 66 69 70 71 72 73 75 75 74 78 82 81 79 77 78 85 90 90 89 88 87
47 46 46 44 42 40 39 38 38 39 44 47 51 54 57 59 59 58 58 60 63 66 68 69 70 71 72 73 72 72 78 83 83 81 80 78 83 90 90 88 86 86
47 47 46 45 44 42 40 39 38 38 42 46 49 54 59 63 65 65 64 63 65 66 66 68 71 72 74 76 76 74 78 84 84 84 84 81 83 88 89 87 86 85
48 47 47 46 45 43 42 41 40 41 44 47 48 51 56 61 66 70 72 70 68 67 66 67 70 72 76 81 83 79 76 81 86 88 89 86 83 86 88 88 88 85
50 49 47 47 46 45 44 44 44 43 45 47 47 48 51 56 62 69 74 74 71 68 67 67 68 71 75 80 84 81 77 81 89 92 91 88 85 86 89 90 90 86
53 51 50 49 48 47 46 46 47 46 45 46 47 47 49 54 63 73 77 77 74 70 67 67 68 70 75 80 84 84 85 89 94 95 93 91 87 87 90 91 89 85
55 54 54 52 50 49 48 47 48 49 48 47 47 49 51 55 65 79 85 84 81 76 72 70 71 72 77 84 87 88 91 96 98 96 94 91 88 88 91 90 85 78
57 56 56 56 54 52 50 49 49 50 51 51 51 52 55 57 65 82 92 91 87 84 78 75 76 78 83 88 90 92 94 98 99 96 92 90 89 89 90 86 78 71
58 57 57 57 56 54 52 51 51 51 53 54 54 54 57 59 63 76 89 91 89 89 86 83 83 86 92 95 96 96 96 97 98 94 89 90 90 88 84 79 74 72
59 58 57 57 57 56 54 53 53 53 54 55 56 55 57 59 61 67 77 83 87 91 91 90 91 94 98 99 98 96 94 96 98 94 87 86 85 82 80 78 77 78

ECMWFNIL_prec_cthk_084.txt.gz
RH
37 38 39 41 43 45 47 48 48 46 46 46 48 49 49 52 54 54 57 59 59 60 61 62 63 65 65 63 61 63 67 73 80 82 82 81 80 77 76 75 74 75
40 39 40 42 43 45 46 47 48 47 47 47 47 47 47 51 55 56 56 57 58 60 60 60 61 64 67 66 63 64 67 67 69 77 81 81 80 78 77 77 76 75
42 41 42 43 44 45 45 45 45 47 47 46 45 44 42 44 51 57 56 55 58 63 63 62 61 61 64 68 68 65 66 64 62 67 73 79 81 79 78 79 78 77
42 41 40 40 41 41 42 42 42 44 46 45 43 41 40 39 46 55 58 56 59 64 66 64 63 64 65 70 71 67 64 63 61 62 65 71 78 80 80 80 79 78
42 40 38 38 38 38 39 41 42 42 42 43 42 40 39 39 44 53 58 57 57 62 66 66 65 67 69 71 72 70 69 67 63 63 64 65 69 75 78 79 78 79
40 39 38 37 37 38 39 41 39 37 36 37 38 38 39 39 42 51 57 57 57 60 64 68 67 66 68 70 70 69 72 71 67 66 66 63 63 69 74 75 78 82
40 37 36 35 36 38 40 39 35 33 32 33 35 36 38 40 41 46 53 56 57 59 62 67 70 68 67 68 70 70 71 73 73 70 69 66 65 69 71 71 75 81
41 37 34 34 36 37 38 37 35 33 34 34 35 35 37 40 40 43 48 53 57 59 59 62 66 69 68 68 71 73 72 74 75 74 74 72 69 68 69 71 74 78
42 39 37 37 39 39 38 38 37 37 37 36 35 35 36 38 39 40 43 48 53 57 59 59 60 63 67 69 72 74 74 74 74 75 75 74 71 66 67 72 75 76
44 42 41 41 42 42 42 42 41 40 40 39 36 35 36 36 36 37 40 44 48 54 58 59 60 62 64 66 70 74 75 75 76 76 76 78 76 71 70 74 76 79
44 44 43 43 43 44 44 44 43 43 43 41 39 37 36 36 36 35 37 42 46 50 54 57 60 63 63 62 65 71 75 78 78 77 79 84 82 74 71 73 76 81
45 45 45 45 45 45 45 45 45 45 43 42 40 39 38 38 37 36 36 39 45 48 50 52 56 57 58 62 66 69 74 77 77 76 79 85 85 77 73 75 77 81
45 45 46 46 47 48 47 47 47 46 42 40 37 36 37 37 38 38 37 37 41 47 50 51 51 52 54 60 65 66 68 72 75 76 79 84 87 83 77 75 76 78
46 46 47 48 49 50 50 49 48 45 42 39 37 36 36 36 38 39 39 38 40 44 48 49 50 52 53 55 58 61 63 66 71 76 79 82 85 83 78 77 77 77
47 48 49 50 51 51 51 50 48 46 43 41 40 38 38 37 38 38 38 39 39 40 43 45 46 49 51 53 56 58 60 62 66 70 75 80 82 81 77 76 78 79
49 50 50 51 51 51 51 49 48 46 44 42 41 40 39 39 38 38 38 38 38 38 39 39 40 41 44 50 56 59 60 61 63 64 67 74 79 80 76 74 77 81
51 52 51 52 51 51 50 49 47 46 44 43 42 41 41 40 39 39 38 37 38 38 38 38 37 36 38 43 50 55 58 60 63 63 62 66 74 78 78 74 76 79
53 53 52 52 51 51 50 49 47 46 45 45 44 44 44 43 41 40 39 38 38 37 37 37 37 36 36 38 43 48 52 55 60 65 63 61 67 74 77 75 74 76
54 54 53 52 52 50 50 49 48 47 48 48 48 48 48 46 44 43 42 40 39 38 38 37 36 35 36 39 41 44 47 50 56 63 64 62 63 68 72 74 74 76
56 55 54 54 53 52 51 52 51 50 51 51 52 51 50 49 47 46 45 43 41 41 41 40 38 37 36 39 43 44 46 50 56 62 66 65 63 64 65 68 71 74
57 57 57 57 56 56 56 55 55 55 53 52 52 53 52 51 50 48 47 46 44 44 44 43 42 41 40 41 43 44 45 49 56 63 69 69 67 64 63 65 69 72
60 59 58 58 58 58 57 56 56 55 54 52 52 50 50 49 49 50 50 49 47 47 47 47 46 47 46 44 43 43 43 47 55 64 71 73 70 68 66 66 69 73
61 60 59 58 57 56 55 55 55 54 52 52 51 49 47 47 48 49 50 51 50 48 48 49 49 50 50 48 46 45 45 47 53 62 72 76 74 72 70 69 69 75
60 60 59 58 57 56 55 54 54 53 52 52 51 51 49 49 49 50 51 52 53 52 51 50 50 49 49 48 47 48 48 48 51 59 71 79 78 74 71 69 70 74
60 60 60 59 58 57 56 54 54 55 54 53 53 53 52 52 52 52 53 54 55 56 56 54 53 51 50 50 49 48 49 50 53 59 68 78 83 79 73 72 75 80
60 60 58 57 57 55 54 54 54 55 56 55 55 54 54 56 56 56 56 56 57 58 59 59 59 57 54 52 51 51 52 53 56 60 66 74 83 85 79 74 77 85

ECMWFNIL_prec_cthk_087.txt.gz
RH
35 36 36 37 40 42 45 47 47 47 45 44 43 43 43 42 42 41 42 45 48 50 51 54 56 60 64 66 65 66 70 73 75 74 71 71 74 79 83 85 85 85
36 37 37 38 38 38 40 43 45 45 44 44 43 43 42 41 40 39 38 39 43 47 50 53 56 60 68 71 68 67 70 70 71 73 73 74 77 80 82 85 86 86
37 38 38 38 37 36 37 39 41 42 43 43 42 41 41 39 38 38 38 37 40 44 48 51 55 59 68 75 73 70 71 69 67 70 73 73 74 75 79 84 88 88
37 36 36 36 35 36 35 35 35 37 39 40 41 40 39 38 37 37 38 37 38 43 46 47 51 57 64 72 76 75 72 70 69 70 72 71 69 69 72 77 82 87
37 35 35 37 37 36 35 33 32 33 33 34 36 38 38 38 37 36 36 37 38 41 44 45 49 56 60 65 72 77 76 72 70 70 71 72 72 70 70 73 75 79
38 37 38 39 39 38 37 35 34 33 33 33 33 35 38 38 38 37 36 36 36 38 40 43 47 53 58 60 64 71 75 74 71 70 71 72 74 73 71 73 74 75
39 39 40 41 42 41 40 39 38 37 37 36 34 35 38 39 39 38 38 37 36 36 37 40 44 49 55 59 60 63 69 72 74 74 74 73 75 76 73 73 75 76
40 40 42 43 43 43 42 41 40 39 39 39 38 37 37 38 39 40 39 38 37 37 36 38 42 46 49 54 58 61 63 67 72 76 78 78 78 79 77 74 75 75
41 42 43 44 44 44 43 41 40 39 37 36 37 37 36 36 38 40 40 40 39 39 38 38 40 44 46 48 52 56 58 60 63 67 72 77 79 81 83 80 78 76
42 43 43 43 44 43 42 41 40 37 35 35 35 36 35 36 37 38 38 38 39 39 39 39 39 41 45 46 47 49 51 53 57 61 65 70 74 78 82 82 80 78
44 44 44 43 43 43 42 41 39 37 36 37 37 36 37 37 38 37 36 36 36 37 38 39 38 39 42 46 46 46 47 49 53 58 61 65 67 71 77 81 81 80
44 44 44 43 43 43 42 40 38 37 36 37 38 39 40 40 39 39 38 37 36 35 37 39 38 38 39 41 43 44 45 47 49 53 56 59 60 63 70 76 80 84
43 43 44 43 43 43 43 41 39 38 38 39 39 40 41 41 41 41 41 40 39 37 37 38 38 37 36 37 38 39 40 43 47 50 53 56 56 57 61 65 72 82
44 44 44 45 44 43 42 41 41 41 40 40 41 41 41 42 42 42 42 42 41 40 39 39 38 37 36 36 34 34 35 37 40 44 49 53 55 56 58 60 65 75
45 45 46 46 46 45 44 43 42 43 43 43 43 42 42 41 42 42 43 43 43 42 41 40 39 38 37 36 34 33 32 32 34 37 41 45 49 53 56 59 62 67
48 48 48 48 49 49 48 47 45 44 45 46 46 45 43 41 41 41 42 43 44 43 43 42 40 38 37 36 35 34 32 31 31 32 35 39 43 46 52 57 61 63
51 51 51 51 52 52 51 50 48 46 46 47 48 48 46 43 41 41 42 43 44 44 44 43 42 40 38 35 34 34 32 31 30 30 32 37 41 44 47 55 60 62
54 54 54 54 53 53 52 52 51 49 48 49 49 48 47 45 44 43 43 44 45 45 44 44 42 41 40 37 35 34 33 32 32 33 34 36 40 42 45 52 59 63
54 54 55 55 54 54 54 54 53 52 51 51 50 48 47 47 46 46 46 46 46 46 46 45 44 42 41 38 36 35 34 34 35 38 39 39 40 42 44 49 57 64
55 55 54 55 55 54 54 55 55 55 54 53 52 50 49 49 49 48 48 48 48 47 46 45 45 44 42 40 38 36 36 37 38 40 42 43 43 44 46 48 55 64
56 55 55 54 52 51 51 53 55 55 54 54 53 52 50 50 50 50 49 49 48 47 46 45 45 44 44 43 42 40 39 40 41 41 43 44 45 46 47 48 53 62
53 52 52 50 48 47 48 50 52 52 52 53 53 52 52 51 51 50 49 49 48 47 46 46 45 45 45 45 45 43 41 41 43 44 44 44 45 46 47 48 50 58
52 51 50 48 45 44 45 47 49 50 50 50 51 52 52 52 51 52 50 49 49 48 47 47 48 48 48 48 47 46 45 43 43 45 45 45 46 46 47 49 50 56
49 48 48 46 43 42 42 43 45 46 47 48 50 53 53 52 52 52 52 51 51 51 51 50 50 51 52 52 52 52 51 49 47 46 46 47 48 49 49 50 51 54
46 46 45 43 41 40 40 40 41 43 44 46 49 52 53 53 53 53 52 53 54 55 54 54 54 55 56 57 58 58 58 57 53 51 52 53 53 51 51 52 53 53
40 41 40 38 37 37 36 37 39 40 42 44 46 48 49 50 50 51 51 52 53 54 55 55 56 57 57 58 60 60 61 61 59 57 58 59 59 56 54 55 56 54